Time,TemperatureF,DewpointF,PressureIn,WindDirection,WindDirectionDegrees,WindSpeedMPH,WindSpeedGustMPH,Humidity,HourlyPrecipIn,Conditions,Clouds,dailyrainin,SoftwareType,DateUTC
2013-07-16 00:01:00,78.3,71.2,30.12,WSW,243,0.0,1.0,79,0.00,,,0.00,meteohub,2013-07-16 05:01:00,
2013-07-16 00:06:00,78.3,71.2,30.12,WSW,243,0.0,1.0,79,0.00,,,0.00,meteohub,2013-07-16 05:06:00,
2013-07-16 00:11:00,78.3,71.2,30.12,WSW,242,0.0,0.0,79,0.00,,,0.00,meteohub,2013-07-16 05:11:00,
2013-07-16 00:16:00,78.3,71.2,30.12,WSW,243,0.0,0.0,79,0.00,,,0.00,meteohub,2013-07-16 05:16:00,
2013-07-16 00:21:00,78.3,71.2,30.12,WSW,243,0.0,0.0,79,0.00,,,0.00,meteohub,2013-07-16 05:21:00,
2013-07-16 00:26:00,78.3,71.2,30.12,WSW,242,0.0,0.0,79,0.00,,,0.00,meteohub,2013-07-16 05:26:00,
2013-07-16 00:31:00,78.3,71.2,30.12,WSW,243,0.0,0.0,79,0.00,,,0.00,meteohub,2013-07-16 05:31:00,
2013-07-16 00:36:00,78.3,71.2,30.12,WSW,243,0.0,0.0,79,0.00,,,0.00,meteohub,2013-07-16 05:36:00,
2013-07-16 00:42:00,78.3,71.2,30.12,WSW,242,0.0,0.0,79,0.00,,,0.00,meteohub,2013-07-16 05:42:00,
2013-07-16 00:47:00,78.1,71.4,30.12,WSW,242,0.0,0.0,80,0.00,,,0.00,meteohub,2013-07-16 05:47:00,
2013-07-16 00:52:00,78.1,71.4,30.12,WSW,243,0.0,0.0,80,0.00,,,0.00,meteohub,2013-07-16 05:52:00,
2013-07-16 00:57:00,78.1,71.4,30.12,WSW,243,0.0,0.0,80,0.00,,,0.00,meteohub,2013-07-16 05:57:00,
2013-07-16 01:02:00,78.1,71.4,30.12,WSW,243,0.0,0.0,80,0.00,,,0.00,meteohub,2013-07-16 06:02:00,
2013-07-16 01:07:00,78.1,71.4,30.12,WSW,246,0.0,1.0,80,0.00,,,0.00,meteohub,2013-07-16 06:07:00,
2013-07-16 01:12:00,78.1,71.4,30.13,WSW,246,0.0,1.0,80,0.00,,,0.00,meteohub,2013-07-16 06:12:00,
2013-07-16 01:17:00,77.9,71.2,30.12,WSW,246,0.0,1.0,80,0.00,,,0.00,meteohub,2013-07-16 06:17:00,
2013-07-16 01:22:00,77.9,71.2,30.12,WSW,250,0.0,1.0,80,0.00,,,0.00,meteohub,2013-07-16 06:22:00,
2013-07-16 01:27:00,77.9,71.6,30.12,WSW,249,0.0,1.0,81,0.00,,,0.00,meteohub,2013-07-16 06:27:00,
2013-07-16 01:32:00,77.7,71.4,30.12,WSW,250,0.0,1.0,81,0.00,,,0.00,meteohub,2013-07-16 06:32:00,
2013-07-16 01:37:00,77.7,71.4,30.12,WSW,253,0.0,1.0,81,0.00,,,0.00,meteohub,2013-07-16 06:37:00,
2013-07-16 01:42:00,77.7,71.4,30.12,WSW,252,0.0,1.0,81,0.00,,,0.00,meteohub,2013-07-16 06:42:00,
2013-07-16 01:47:00,77.7,71.4,30.12,WSW,252,0.0,1.0,81,0.00,,,0.00,meteohub,2013-07-16 06:47:00,
2013-07-16 01:52:00,77.7,71.4,30.13,West,274,0.0,1.0,81,0.00,,,0.00,meteohub,2013-07-16 06:52:00,
2013-07-16 01:57:00,77.7,71.4,30.12,NW,323,0.0,3.0,81,0.00,,,0.00,meteohub,2013-07-16 06:57:00,
2013-07-16 02:02:00,77.5,71.2,30.12,NNW,331,0.0,3.0,81,0.00,,,0.00,meteohub,2013-07-16 07:02:00,
2013-07-16 02:07:00,77.5,71.2,30.12,NNW,331,0.0,3.0,81,0.00,,,0.00,meteohub,2013-07-16 07:07:00,
2013-07-16 02:12:00,77.5,71.2,30.12,NW,323,0.0,3.0,81,0.00,,,0.00,meteohub,2013-07-16 07:12:00,
2013-07-16 02:17:00,77.5,71.2,30.12,NW,322,0.0,0.0,81,0.00,,,0.00,meteohub,2013-07-16 07:17:00,
2013-07-16 02:22:00,77.4,71.1,30.12,WSW,257,0.0,0.0,81,0.00,,,0.00,meteohub,2013-07-16 07:22:00,
2013-07-16 02:27:00,77.4,71.1,30.12,WSW,257,0.0,3.0,81,0.00,,,0.00,meteohub,2013-07-16 07:27:00,
2013-07-16 02:32:00,77.4,71.4,30.12,WSW,256,0.0,3.0,82,0.00,,,0.00,meteohub,2013-07-16 07:32:00,
2013-07-16 02:37:00,77.4,71.4,30.12,WSW,257,0.0,3.0,82,0.00,,,0.00,meteohub,2013-07-16 07:37:00,
2013-07-16 02:42:00,77.2,71.2,30.12,WSW,257,0.0,0.0,82,0.00,,,0.00,meteohub,2013-07-16 07:42:00,
2013-07-16 02:47:00,77.2,71.2,30.12,WSW,257,0.0,0.0,82,0.00,,,0.00,meteohub,2013-07-16 07:47:00,
2013-07-16 02:52:00,77.2,71.2,30.12,WSW,257,0.0,0.0,82,0.00,,,0.00,meteohub,2013-07-16 07:52:00,
2013-07-16 02:57:00,77.2,71.2,30.12,West,259,0.0,0.0,82,0.00,,,0.00,meteohub,2013-07-16 07:57:00,
2013-07-16 03:02:00,77.0,71.1,30.12,WSW,254,0.0,1.0,82,0.00,,,0.00,meteohub,2013-07-16 08:02:00,
2013-07-16 03:07:00,76.8,70.9,30.12,WSW,254,0.0,1.0,82,0.00,,,0.00,meteohub,2013-07-16 08:07:00,
2013-07-16 03:12:00,76.8,70.9,30.12,WSW,254,0.0,1.0,82,0.00,,,0.00,meteohub,2013-07-16 08:12:00,
2013-07-16 03:17:00,76.8,70.9,30.12,WSW,254,0.0,0.0,82,0.00,,,0.00,meteohub,2013-07-16 08:17:00,
2013-07-16 03:22:00,76.6,70.7,30.12,WSW,254,0.0,0.0,82,0.00,,,0.00,meteohub,2013-07-16 08:22:00,
2013-07-16 03:27:00,76.6,71.1,30.11,WSW,254,0.0,0.0,83,0.00,,,0.00,meteohub,2013-07-16 08:27:00,
2013-07-16 03:32:00,76.6,71.1,30.11,West,264,0.0,0.0,83,0.00,,,0.00,meteohub,2013-07-16 08:32:00,
2013-07-16 03:37:00,76.5,70.9,30.11,West,264,0.0,0.0,83,0.00,,,0.00,meteohub,2013-07-16 08:37:00,
2013-07-16 03:42:00,76.5,70.9,30.11,West,264,0.0,0.0,83,0.00,,,0.00,meteohub,2013-07-16 08:42:00,
2013-07-16 03:47:00,76.5,70.9,30.11,West,264,0.0,0.0,83,0.00,,,0.00,meteohub,2013-07-16 08:47:00,
2013-07-16 03:52:00,76.3,70.7,30.11,West,264,0.0,1.0,83,0.00,,,0.00,meteohub,2013-07-16 08:52:00,
2013-07-16 03:57:00,76.3,70.7,30.12,West,264,0.0,1.0,83,0.00,,,0.00,meteohub,2013-07-16 08:57:00,
2013-07-16 04:02:00,76.1,70.5,30.12,West,264,0.0,1.0,83,0.00,,,0.00,meteohub,2013-07-16 09:02:00,
2013-07-16 04:07:00,76.1,70.5,30.12,West,264,0.0,0.0,83,0.00,,,0.00,meteohub,2013-07-16 09:07:00,
2013-07-16 04:12:00,75.9,70.3,30.12,West,264,0.0,0.0,83,0.00,,,0.00,meteohub,2013-07-16 09:12:00,
2013-07-16 04:17:00,75.9,70.7,30.12,West,264,0.0,0.0,84,0.00,,,0.00,meteohub,2013-07-16 09:17:00,
2013-07-16 04:22:00,75.9,70.7,30.12,West,264,0.0,0.0,84,0.00,,,0.00,meteohub,2013-07-16 09:22:00,
2013-07-16 04:27:00,75.9,70.7,30.12,West,260,0.0,0.0,84,0.00,,,0.00,meteohub,2013-07-16 09:27:00,
2013-07-16 04:32:00,75.7,70.5,30.12,WSW,256,0.0,1.0,84,0.00,,,0.00,meteohub,2013-07-16 09:32:00,
2013-07-16 04:37:00,75.7,70.5,30.12,WSW,256,0.0,1.0,84,0.00,,,0.00,meteohub,2013-07-16 09:37:00,
2013-07-16 04:42:00,75.7,70.9,30.12,WSW,256,0.0,1.0,85,0.00,,,0.00,meteohub,2013-07-16 09:42:00,
2013-07-16 04:47:00,75.7,70.9,30.12,WSW,256,0.0,0.0,85,0.00,,,0.00,meteohub,2013-07-16 09:47:00,
2013-07-16 04:52:00,75.7,70.9,30.12,WSW,256,0.0,0.0,85,0.00,,,0.00,meteohub,2013-07-16 09:52:00,
2013-07-16 04:57:00,75.6,70.7,30.12,WSW,256,0.0,0.0,85,0.00,,,0.00,meteohub,2013-07-16 09:57:00,
2013-07-16 05:02:00,75.6,70.7,30.12,WSW,256,0.0,0.0,85,0.00,,,0.00,meteohub,2013-07-16 10:02:00,
2013-07-16 05:07:00,75.6,70.7,30.12,WSW,256,0.0,0.0,85,0.00,,,0.00,meteohub,2013-07-16 10:07:00,
2013-07-16 05:12:00,75.6,70.7,30.12,WSW,250,0.0,0.0,85,0.00,,,0.00,meteohub,2013-07-16 10:12:00,
2013-07-16 05:17:00,75.6,70.7,30.12,WSW,248,0.0,0.0,85,0.00,,,0.00,meteohub,2013-07-16 10:17:00,
2013-07-16 05:22:00,75.4,70.5,30.12,WSW,248,0.0,0.0,85,0.00,,,0.00,meteohub,2013-07-16 10:22:00,
2013-07-16 05:27:00,75.4,70.5,30.12,WSW,248,0.0,0.0,85,0.00,,,0.00,meteohub,2013-07-16 10:27:00,
2013-07-16 05:32:00,75.4,70.5,30.12,WSW,248,0.0,0.0,85,0.00,,,0.00,meteohub,2013-07-16 10:32:00,
2013-07-16 05:37:00,75.4,70.9,30.13,WSW,243,0.0,0.0,86,0.00,,,0.00,meteohub,2013-07-16 10:37:00,
2013-07-16 05:42:00,75.2,70.7,30.12,WSW,242,0.0,0.0,86,0.00,,,0.00,meteohub,2013-07-16 10:42:00,
2013-07-16 05:47:00,75.0,70.5,30.12,WSW,243,0.0,0.0,86,0.00,,,0.00,meteohub,2013-07-16 10:47:00,
2013-07-16 05:52:00,75.0,70.5,30.12,WSW,243,0.0,0.0,86,0.00,,,0.00,meteohub,2013-07-16 10:52:00,
2013-07-16 05:57:00,75.0,70.5,30.13,WSW,243,0.0,0.0,86,0.00,,,0.00,meteohub,2013-07-16 10:57:00,
2013-07-16 06:02:00,74.8,70.3,30.12,WSW,242,0.0,0.0,86,0.00,,,0.00,meteohub,2013-07-16 11:02:00,
2013-07-16 06:07:00,74.8,70.3,30.13,WSW,243,0.0,0.0,86,0.00,,,0.00,meteohub,2013-07-16 11:07:00,
2013-07-16 06:12:00,74.8,70.3,30.13,WSW,243,0.0,0.0,86,0.00,,,0.00,meteohub,2013-07-16 11:12:00,
2013-07-16 06:17:00,74.8,70.7,30.13,WSW,244,0.0,0.0,87,0.00,,,0.00,meteohub,2013-07-16 11:17:00,
2013-07-16 06:22:00,74.8,70.7,30.13,WSW,244,0.0,0.0,87,0.00,,,0.00,meteohub,2013-07-16 11:22:00,
2013-07-16 06:27:00,74.8,70.7,30.13,WSW,244,0.0,0.0,87,0.00,,,0.00,meteohub,2013-07-16 11:27:00,
2013-07-16 06:32:00,74.8,70.7,30.13,WSW,244,0.0,0.0,87,0.00,,,0.00,meteohub,2013-07-16 11:32:00,
2013-07-16 06:37:00,74.8,70.7,30.14,WSW,244,0.0,0.0,87,0.00,,,0.00,meteohub,2013-07-16 11:37:00,
2013-07-16 06:42:00,74.8,70.7,30.14,WSW,244,0.0,0.0,87,0.00,,,0.00,meteohub,2013-07-16 11:42:00,
2013-07-16 06:47:00,74.8,70.7,30.14,WSW,244,0.0,0.0,87,0.00,,,0.00,meteohub,2013-07-16 11:47:00,
2013-07-16 06:52:00,74.8,70.7,30.14,WSW,244,0.0,0.0,87,0.00,,,0.00,meteohub,2013-07-16 11:52:00,
2013-07-16 06:57:00,74.8,70.7,30.14,WSW,244,0.0,0.0,87,0.00,,,0.00,meteohub,2013-07-16 11:57:00,
2013-07-16 07:02:00,75.0,71.2,30.14,WSW,244,0.0,0.0,88,0.00,,,0.00,meteohub,2013-07-16 12:02:00,
2013-07-16 07:07:00,75.0,71.2,30.14,WSW,244,0.0,0.0,88,0.00,,,0.00,meteohub,2013-07-16 12:07:00,
2013-07-16 07:12:00,75.2,71.4,30.14,West,271,0.0,0.0,88,0.00,,,0.00,meteohub,2013-07-16 12:12:00,
2013-07-16 07:17:00,75.4,71.6,30.14,West,267,0.0,0.0,88,0.00,,,0.00,meteohub,2013-07-16 12:17:00,
2013-07-16 07:22:00,75.6,71.8,30.14,West,263,0.0,3.0,88,0.00,,,0.00,meteohub,2013-07-16 12:22:00,
2013-07-16 07:27:00,75.7,72.0,30.14,West,263,0.0,3.0,88,0.00,,,0.00,meteohub,2013-07-16 12:27:00,
2013-07-16 07:32:00,75.9,72.1,30.14,West,260,0.0,3.0,88,0.00,,,0.00,meteohub,2013-07-16 12:32:00,
2013-07-16 07:37:00,76.3,72.5,30.15,West,260,0.0,1.0,88,0.00,,,0.00,meteohub,2013-07-16 12:37:00,
2013-07-16 07:42:00,76.5,72.7,30.14,West,277,0.0,1.0,88,0.00,,,0.00,meteohub,2013-07-16 12:42:00,
2013-07-16 07:47:00,76.6,72.9,30.14,West,264,0.0,4.0,88,0.00,,,0.00,meteohub,2013-07-16 12:47:00,
2013-07-16 07:52:00,76.8,72.7,30.14,West,265,0.0,4.0,87,0.00,,,0.00,meteohub,2013-07-16 12:52:00,
2013-07-16 07:57:00,77.0,72.9,30.15,West,269,0.0,4.0,87,0.00,,,0.00,meteohub,2013-07-16 12:57:00,
2013-07-16 08:02:00,77.4,73.2,30.15,WSW,254,0.0,4.0,87,0.00,,,0.00,meteohub,2013-07-16 13:02:00,
2013-07-16 08:07:00,77.7,73.2,30.15,WSW,256,0.0,5.0,86,0.00,,,0.00,meteohub,2013-07-16 13:07:00,
2013-07-16 08:12:00,78.1,73.6,30.15,WSW,256,0.0,5.0,86,0.00,,,0.00,meteohub,2013-07-16 13:12:00,
2013-07-16 08:17:00,78.3,73.4,30.15,West,261,0.0,5.0,85,0.00,,,0.00,meteohub,2013-07-16 13:17:00,
2013-07-16 08:22:00,78.6,73.8,30.15,WSW,257,0.0,2.0,85,0.00,,,0.00,meteohub,2013-07-16 13:22:00,
2013-07-16 08:27:00,79.2,73.9,30.15,WSW,258,0.0,2.0,84,0.00,,,0.00,meteohub,2013-07-16 13:27:00,
2013-07-16 08:32:00,79.3,74.1,30.15,WSW,252,0.0,1.0,84,0.00,,,0.00,meteohub,2013-07-16 13:32:00,
2013-07-16 08:37:00,79.5,73.9,30.15,WSW,253,0.0,1.0,83,0.00,,,0.00,meteohub,2013-07-16 13:37:00,
2013-07-16 08:42:00,79.9,73.9,30.16,WSW,254,0.0,3.0,82,0.00,,,0.00,meteohub,2013-07-16 13:42:00,
2013-07-16 08:47:00,80.1,73.8,30.16,WSW,246,0.0,3.0,81,0.00,,,0.00,meteohub,2013-07-16 13:47:00,
2013-07-16 08:52:00,80.2,73.9,30.16,WSW,246,0.0,3.0,81,0.00,,,0.00,meteohub,2013-07-16 13:52:00,
2013-07-16 08:57:00,80.4,73.8,30.15,WSW,238,0.0,1.0,80,0.00,,,0.00,meteohub,2013-07-16 13:57:00,
2013-07-16 09:02:00,80.8,73.6,30.16,WSW,254,0.0,2.0,79,0.00,,,0.00,meteohub,2013-07-16 14:02:00,
2013-07-16 09:07:00,80.8,73.2,30.16,WSW,244,0.0,2.0,78,0.00,,,0.00,meteohub,2013-07-16 14:07:00,
2013-07-16 09:12:00,81.0,73.4,30.16,West,261,3.0,3.0,78,0.00,,,0.00,meteohub,2013-07-16 14:12:00,
2013-07-16 09:17:00,81.0,73.0,30.16,WSW,248,2.0,5.0,77,0.00,,,0.00,meteohub,2013-07-16 14:17:00,
2013-07-16 09:22:00,81.0,73.0,30.15,WSW,249,0.0,5.0,77,0.00,,,0.00,meteohub,2013-07-16 14:22:00,
2013-07-16 09:27:00,81.1,73.2,30.15,WSW,252,0.0,5.0,77,0.00,,,0.00,meteohub,2013-07-16 14:27:00,
2013-07-16 09:32:00,81.1,73.2,30.15,West,271,1.0,4.0,77,0.00,,,0.00,meteohub,2013-07-16 14:32:00,
2013-07-16 09:37:00,81.3,73.0,30.15,WSW,250,0.0,4.0,76,0.00,,,0.00,meteohub,2013-07-16 14:37:00,
2013-07-16 09:42:00,81.5,73.2,30.15,WSW,250,0.0,4.0,76,0.00,,,0.00,meteohub,2013-07-16 14:42:00,
2013-07-16 09:47:00,81.7,73.4,30.15,West,273,0.0,4.0,76,0.00,,,0.00,meteohub,2013-07-16 14:47:00,
2013-07-16 09:52:00,81.9,73.6,30.15,WSW,245,0.0,4.0,76,0.00,,,0.00,meteohub,2013-07-16 14:52:00,
2013-07-16 09:57:00,81.9,73.2,30.15,WSW,250,0.0,3.0,75,0.00,,,0.00,meteohub,2013-07-16 14:57:00,
2013-07-16 10:02:00,82.0,73.4,30.15,West,279,0.0,9.0,75,0.00,,,0.00,meteohub,2013-07-16 15:02:00,
2013-07-16 10:07:00,82.2,73.6,30.15,WSW,248,0.0,9.0,75,0.00,,,0.00,meteohub,2013-07-16 15:07:00,
2013-07-16 10:12:00,82.4,73.8,30.15,WSW,247,0.0,9.0,75,0.00,,,0.00,meteohub,2013-07-16 15:12:00,
2013-07-16 10:17:00,82.6,73.4,30.15,West,275,3.0,3.0,74,0.00,,,0.00,meteohub,2013-07-16 15:17:00,
2013-07-16 10:22:00,82.8,73.6,30.15,WSW,248,0.0,6.0,74,0.00,,,0.00,meteohub,2013-07-16 15:22:00,
2013-07-16 10:27:00,82.9,73.4,30.15,WSW,253,0.0,6.0,73,0.00,,,0.00,meteohub,2013-07-16 15:27:00,
2013-07-16 10:32:00,82.9,73.4,30.15,WSW,252,0.0,6.0,73,0.00,,,0.00,meteohub,2013-07-16 15:32:00,
2013-07-16 10:37:00,83.1,73.6,30.15,West,269,0.0,5.0,73,0.00,,,0.00,meteohub,2013-07-16 15:37:00,
2013-07-16 10:42:00,83.3,73.4,30.15,West,281,0.0,4.0,72,0.00,,,0.00,meteohub,2013-07-16 15:42:00,
2013-07-16 10:47:00,83.7,73.6,30.15,WSW,257,0.0,4.0,72,0.00,,,0.00,meteohub,2013-07-16 15:47:00,
2013-07-16 10:52:00,83.8,73.8,30.15,WSW,246,0.0,4.0,72,0.00,,,0.00,meteohub,2013-07-16 15:52:00,
2013-07-16 10:57:00,84.0,73.9,30.15,WSW,254,0.0,4.0,72,0.00,,,0.00,meteohub,2013-07-16 15:57:00,
2013-07-16 11:02:00,84.0,73.2,30.15,West,263,0.0,5.0,70,0.00,,,0.00,meteohub,2013-07-16 16:02:00,
2013-07-16 11:07:00,84.4,73.6,30.15,WSW,250,0.0,5.0,70,0.00,,,0.00,meteohub,2013-07-16 16:07:00,
2013-07-16 11:12:00,84.6,73.8,30.15,WSW,248,5.0,5.0,70,0.00,,,0.00,meteohub,2013-07-16 16:12:00,
2013-07-16 11:17:00,84.7,73.4,30.15,WSW,254,0.0,5.0,69,0.00,,,0.00,meteohub,2013-07-16 16:17:00,
2013-07-16 11:22:00,84.7,73.4,30.15,West,267,1.0,5.0,69,0.00,,,0.00,meteohub,2013-07-16 16:22:00,
2013-07-16 11:27:00,84.9,73.2,30.15,West,265,1.0,7.0,68,0.00,,,0.00,meteohub,2013-07-16 16:27:00,
2013-07-16 11:32:00,85.1,73.8,30.15,WSW,246,0.0,7.0,69,0.00,,,0.00,meteohub,2013-07-16 16:32:00,
2013-07-16 11:37:00,85.3,73.6,30.15,SW,225,0.0,7.0,68,0.00,,,0.00,meteohub,2013-07-16 16:37:00,
2013-07-16 11:42:00,85.5,73.2,30.15,WNW,299,4.0,7.0,67,0.00,,,0.00,meteohub,2013-07-16 16:42:00,
2013-07-16 11:47:00,85.6,73.4,30.15,WSW,245,0.0,7.0,67,0.00,,,0.00,meteohub,2013-07-16 16:47:00,
2013-07-16 11:52:00,85.6,73.0,30.15,NE,42,0.0,7.0,66,0.00,,,0.00,meteohub,2013-07-16 16:52:00,
2013-07-16 11:57:00,85.6,73.0,30.15,WSW,253,0.0,6.0,66,0.00,,,0.00,meteohub,2013-07-16 16:57:00,
2013-07-16 12:02:00,86.0,73.2,30.15,West,263,0.0,4.0,66,0.00,,,0.00,meteohub,2013-07-16 17:02:00,
2013-07-16 12:07:00,86.2,73.4,30.15,WSW,250,0.0,4.0,66,0.00,,,0.00,meteohub,2013-07-16 17:07:00,
2013-07-16 12:12:00,86.4,73.6,30.15,WSW,244,0.0,4.0,66,0.00,,,0.00,meteohub,2013-07-16 17:12:00,
2013-07-16 12:17:00,86.5,73.4,30.15,WSW,254,0.0,3.0,65,0.00,,,0.00,meteohub,2013-07-16 17:17:00,
2013-07-16 12:22:00,86.7,73.0,30.15,West,265,4.0,7.0,64,0.00,,,0.00,meteohub,2013-07-16 17:22:00,
2013-07-16 12:27:00,86.7,72.7,30.14,West,279,1.0,9.0,63,0.00,,,0.00,meteohub,2013-07-16 17:27:00,
2013-07-16 12:32:00,87.1,72.5,30.14,WSW,252,1.0,9.0,62,0.00,,,0.00,meteohub,2013-07-16 17:32:00,
2013-07-16 12:37:00,87.3,73.0,30.15,WSW,250,0.0,9.0,63,0.00,,,0.00,meteohub,2013-07-16 17:37:00,
2013-07-16 12:40:00,87.4,73.2,30.15,WSW,242,0.0,5.0,63,0.00,,,0.00,meteohub,2013-07-16 17:40:00,
2013-07-16 12:45:00,87.4,72.9,30.14,WSW,257,0.0,5.0,62,0.00,,,0.00,meteohub,2013-07-16 17:45:00,
2013-07-16 12:50:00,87.8,73.2,30.14,West,271,0.0,12.0,62,0.00,,,0.00,meteohub,2013-07-16 17:50:00,
2013-07-16 12:55:00,88.2,73.0,30.14,WSW,251,0.0,12.0,61,0.00,,,0.00,meteohub,2013-07-16 17:55:00,
2013-07-16 13:00:00,88.3,73.2,30.14,West,260,1.0,12.0,61,0.00,,,0.00,meteohub,2013-07-16 18:00:00,
2013-07-16 13:05:00,88.7,73.0,30.14,West,264,1.0,6.0,60,0.00,,,0.00,meteohub,2013-07-16 18:05:00,
2013-07-16 13:10:00,89.1,72.9,30.14,West,277,4.0,6.0,59,0.00,,,0.00,meteohub,2013-07-16 18:10:00,
2013-07-16 13:15:00,89.4,72.7,30.14,West,259,0.0,6.0,58,0.00,,,0.00,meteohub,2013-07-16 18:15:00,
2013-07-16 13:20:00,89.8,73.6,30.14,NNW,340,0.0,6.0,59,0.00,,,0.00,meteohub,2013-07-16 18:20:00,
2013-07-16 13:26:00,90.1,73.9,30.14,WSW,253,0.0,5.0,59,0.00,,,0.00,meteohub,2013-07-16 18:26:00,
2013-07-16 13:31:00,89.6,73.4,30.14,NW,308,5.0,5.0,59,0.00,,,0.00,meteohub,2013-07-16 18:31:00,
2013-07-16 13:36:00,89.2,73.0,30.14,West,267,0.0,7.0,59,0.00,,,0.00,meteohub,2013-07-16 18:36:00,
2013-07-16 13:41:00,89.4,73.2,30.14,WSW,251,0.0,7.0,59,0.00,,,0.00,meteohub,2013-07-16 18:41:00,
2013-07-16 13:46:00,89.8,74.5,30.14,WSW,240,0.0,7.0,61,0.00,,,0.00,meteohub,2013-07-16 18:46:00,
2013-07-16 13:51:00,89.8,74.1,30.14,WSW,256,0.0,7.0,60,0.00,,,0.00,meteohub,2013-07-16 18:51:00,
2013-07-16 13:56:00,89.4,73.2,30.14,West,269,0.0,10.0,59,0.00,,,0.00,meteohub,2013-07-16 18:56:00,
2013-07-16 14:01:00,89.1,73.9,30.14,WSW,257,0.0,10.0,61,0.00,,,0.00,meteohub,2013-07-16 19:01:00,
2013-07-16 14:06:00,90.0,73.8,30.14,NW,306,1.0,10.0,59,0.00,,,0.00,meteohub,2013-07-16 19:06:00,
2013-07-16 14:11:00,90.1,73.4,30.14,West,273,0.0,6.0,58,0.00,,,0.00,meteohub,2013-07-16 19:11:00,
2013-07-16 14:17:00,90.1,74.3,30.14,WSW,246,1.0,6.0,60,0.00,,,0.00,meteohub,2013-07-16 19:17:00,
2013-07-16 14:22:00,90.3,74.1,30.14,WSW,254,0.0,5.0,59,0.00,,,0.00,meteohub,2013-07-16 19:22:00,
2013-07-16 14:27:00,90.0,73.2,30.14,WSW,248,0.0,5.0,58,0.00,,,0.00,meteohub,2013-07-16 19:27:00,
2013-07-16 14:32:00,89.8,73.6,30.14,WSW,252,0.0,5.0,59,0.00,,,0.00,meteohub,2013-07-16 19:32:00,
2013-07-16 14:37:00,89.6,73.9,30.14,WSW,253,0.0,4.0,60,0.00,,,0.00,meteohub,2013-07-16 19:37:00,
2013-07-16 14:42:00,89.6,73.9,30.14,SW,228,0.0,4.0,60,0.00,,,0.00,meteohub,2013-07-16 19:42:00,
2013-07-16 14:47:00,90.7,73.9,30.13,WSW,256,0.0,5.0,58,0.00,,,0.00,meteohub,2013-07-16 19:47:00,
2013-07-16 14:52:00,91.0,74.1,30.13,WSW,244,2.0,5.0,58,0.00,,,0.00,meteohub,2013-07-16 19:52:00,
2013-07-16 14:57:00,90.7,72.9,30.13,WSW,254,4.0,5.0,56,0.00,,,0.00,meteohub,2013-07-16 19:57:00,
2013-07-16 15:02:00,90.1,72.3,30.14,WSW,256,3.0,6.0,56,0.00,,,0.00,meteohub,2013-07-16 20:02:00,
2013-07-16 15:07:00,90.9,73.6,30.13,West,265,3.0,6.0,57,0.00,,,0.00,meteohub,2013-07-16 20:07:00,
2013-07-16 15:12:00,90.1,72.9,30.13,WSW,250,0.0,6.0,57,0.00,,,0.00,meteohub,2013-07-16 20:12:00,
2013-07-16 15:17:00,90.7,73.4,30.13,West,269,0.0,6.0,57,0.00,,,0.00,meteohub,2013-07-16 20:17:00,
2013-07-16 15:22:00,91.0,73.2,30.13,WSW,246,0.0,6.0,56,0.00,,,0.00,meteohub,2013-07-16 20:22:00,
2013-07-16 15:27:00,90.9,72.5,30.13,WSW,249,0.0,7.0,55,0.00,,,0.00,meteohub,2013-07-16 20:27:00,
2013-07-16 15:32:00,90.9,72.5,30.13,NW,325,0.0,7.0,55,0.00,,,0.00,meteohub,2013-07-16 20:32:00,
2013-07-16 15:37:00,91.2,72.9,30.13,WSW,254,0.0,7.0,55,0.00,,,0.00,meteohub,2013-07-16 20:37:00,
2013-07-16 15:42:00,91.0,72.1,30.13,WSW,246,0.0,6.0,54,0.00,,,0.00,meteohub,2013-07-16 20:42:00,
2013-07-16 15:47:00,91.0,72.1,30.13,SW,236,0.0,6.0,54,0.00,,,0.00,meteohub,2013-07-16 20:47:00,
2013-07-16 15:52:00,91.0,73.2,30.13,SSW,209,0.0,5.0,56,0.00,,,0.00,meteohub,2013-07-16 20:52:00,
2013-07-16 15:57:00,91.2,72.3,30.13,WSW,254,0.0,5.0,54,0.00,,,0.00,meteohub,2013-07-16 20:57:00,
2013-07-16 16:02:00,90.9,73.6,30.13,WSW,257,0.0,4.0,57,0.00,,,0.00,meteohub,2013-07-16 21:02:00,
2013-07-16 16:07:00,90.7,72.9,30.12,West,266,0.0,7.0,56,0.00,,,0.00,meteohub,2013-07-16 21:07:00,
2013-07-16 16:12:00,91.0,73.2,30.12,WSW,240,0.0,7.0,56,0.00,,,0.00,meteohub,2013-07-16 21:12:00,
2013-07-16 16:14:00,91.0,72.7,30.12,WSW,248,0.0,7.0,55,0.00,,,0.00,meteohub,2013-07-16 21:14:00,
2013-07-16 16:19:00,91.2,73.4,30.12,WSW,250,0.0,7.0,56,0.00,,,0.00,meteohub,2013-07-16 21:19:00,
2013-07-16 16:24:00,91.2,73.4,30.12,West,265,0.0,4.0,56,0.00,,,0.00,meteohub,2013-07-16 21:24:00,
2013-07-16 16:30:00,91.2,72.3,30.12,ENE,61,0.0,4.0,54,0.00,,,0.00,meteohub,2013-07-16 21:30:00,
2013-07-16 16:35:00,91.0,73.2,30.12,West,273,0.0,4.0,56,0.00,,,0.00,meteohub,2013-07-16 21:35:00,
2013-07-16 16:40:00,90.9,72.5,30.12,WSW,257,0.0,5.0,55,0.00,,,0.00,meteohub,2013-07-16 21:40:00,
2013-07-16 16:45:00,90.5,73.8,30.13,WSW,246,0.0,5.0,58,0.00,,,0.00,meteohub,2013-07-16 21:45:00,
2013-07-16 16:50:00,90.3,74.1,30.12,West,259,0.0,3.0,59,0.00,,,0.00,meteohub,2013-07-16 21:50:00,
2013-07-16 16:55:00,90.3,73.0,30.12,WSW,253,0.0,7.0,57,0.00,,,0.00,meteohub,2013-07-16 21:55:00,
2013-07-16 17:00:00,90.5,73.2,30.13,WSW,255,1.0,10.0,57,0.00,,,0.00,meteohub,2013-07-16 22:00:00,
2013-07-16 17:05:00,90.1,72.3,30.13,West,271,0.0,10.0,56,0.00,,,0.00,meteohub,2013-07-16 22:05:00,
2013-07-16 17:10:00,90.0,72.7,30.13,WSW,248,2.0,6.0,57,0.00,,,0.00,meteohub,2013-07-16 22:10:00,
2013-07-16 17:15:00,89.8,73.6,30.13,WSW,247,0.0,6.0,59,0.00,,,0.00,meteohub,2013-07-16 22:15:00,
2013-07-16 17:20:00,89.8,73.0,30.13,WSW,248,2.0,6.0,58,0.00,,,0.00,meteohub,2013-07-16 22:20:00,
2013-07-16 17:25:00,90.1,73.9,30.13,West,265,0.0,2.0,59,0.00,,,0.00,meteohub,2013-07-16 22:25:00,
2013-07-16 17:30:00,90.0,72.7,30.12,WSW,247,0.0,2.0,57,0.00,,,0.00,meteohub,2013-07-16 22:30:00,
2013-07-16 17:35:00,90.0,73.8,30.13,WSW,250,0.0,8.0,59,0.00,,,0.00,meteohub,2013-07-16 22:35:00,
2013-07-16 17:41:00,89.8,73.0,30.13,WSW,244,0.0,8.0,58,0.00,,,0.00,meteohub,2013-07-16 22:41:00,
2013-07-16 17:46:00,89.6,72.9,30.12,West,271,0.0,3.0,58,0.00,,,0.00,meteohub,2013-07-16 22:46:00,
2013-07-16 17:51:00,89.8,72.5,30.12,West,260,0.0,3.0,57,0.00,,,0.00,meteohub,2013-07-16 22:51:00,
2013-07-16 17:56:00,90.0,73.8,30.12,WSW,248,0.0,3.0,59,0.00,,,0.00,meteohub,2013-07-16 22:56:00,
2013-07-16 18:01:00,90.0,72.7,30.12,WSW,254,0.0,3.0,57,0.00,,,0.00,meteohub,2013-07-16 23:01:00,
2013-07-16 18:06:00,90.1,73.4,30.12,WSW,250,0.0,3.0,58,0.00,,,0.00,meteohub,2013-07-16 23:06:00,
2013-07-16 18:11:00,90.1,73.4,30.12,WSW,248,0.0,3.0,58,0.00,,,0.00,meteohub,2013-07-16 23:11:00,
2013-07-16 18:16:00,90.0,73.8,30.12,WSW,253,0.0,3.0,59,0.00,,,0.00,meteohub,2013-07-16 23:16:00,
2013-07-16 18:21:00,90.0,73.2,30.12,WSW,248,0.0,3.0,58,0.00,,,0.00,meteohub,2013-07-16 23:21:00,
2013-07-16 18:26:00,89.8,72.5,30.12,WSW,257,0.0,6.0,57,0.00,,,0.00,meteohub,2013-07-16 23:26:00,
2013-07-16 18:31:00,89.4,72.1,30.12,West,259,0.0,6.0,57,0.00,,,0.00,meteohub,2013-07-16 23:31:00,
2013-07-16 18:36:00,89.4,72.7,30.12,WSW,253,0.0,2.0,58,0.00,,,0.00,meteohub,2013-07-16 23:36:00,
2013-07-16 18:42:00,89.2,73.0,30.12,WSW,253,0.0,2.0,59,0.00,,,0.00,meteohub,2013-07-16 23:42:00,
2013-07-16 18:47:00,89.1,72.9,30.12,WSW,253,0.0,1.0,59,0.00,,,0.00,meteohub,2013-07-16 23:47:00,
2013-07-16 18:52:00,88.9,73.2,30.12,WSW,253,0.0,1.0,60,0.00,,,0.00,meteohub,2013-07-16 23:52:00,
2013-07-16 18:57:00,88.9,73.8,30.12,West,265,0.0,1.0,61,0.00,,,0.00,meteohub,2013-07-16 23:57:00,
2013-07-16 19:02:00,88.5,72.9,30.12,WSW,257,0.0,1.0,60,0.00,,,0.00,meteohub,2013-07-17 00:02:00,
2013-07-16 19:07:00,88.3,72.7,30.12,West,261,0.0,1.0,60,0.00,,,0.00,meteohub,2013-07-17 00:07:00,
2013-07-16 19:12:00,88.2,72.0,30.12,West,265,0.0,1.0,59,0.00,,,0.00,meteohub,2013-07-17 00:12:00,
2013-07-16 19:17:00,88.2,72.5,30.12,WSW,255,0.0,3.0,60,0.00,,,0.00,meteohub,2013-07-17 00:17:00,
2013-07-16 19:22:00,88.0,72.9,30.12,WSW,253,0.0,3.0,61,0.00,,,0.00,meteohub,2013-07-17 00:22:00,
2013-07-16 19:27:00,88.0,72.3,30.12,West,259,0.0,1.0,60,0.00,,,0.00,meteohub,2013-07-17 00:27:00,
2013-07-16 19:32:00,87.8,72.7,30.12,West,262,0.0,3.0,61,0.00,,,0.00,meteohub,2013-07-17 00:32:00,
2013-07-16 19:37:00,87.8,72.7,30.12,West,262,0.0,3.0,61,0.00,,,0.00,meteohub,2013-07-17 00:37:00,
2013-07-16 19:42:00,87.6,72.5,30.12,West,261,0.0,3.0,61,0.00,,,0.00,meteohub,2013-07-17 00:42:00,
2013-07-16 19:47:00,87.4,72.3,30.12,WSW,254,0.0,0.0,61,0.00,,,0.00,meteohub,2013-07-17 00:47:00,
2013-07-16 19:52:00,87.4,72.3,30.12,WSW,252,0.0,1.0,61,0.00,,,0.00,meteohub,2013-07-17 00:52:00,
2013-07-16 19:57:00,87.3,72.7,30.12,WSW,252,0.0,1.0,62,0.00,,,0.00,meteohub,2013-07-17 00:57:00,
2013-07-16 20:02:00,87.1,72.9,30.12,WSW,252,0.0,1.0,63,0.00,,,0.00,meteohub,2013-07-17 01:02:00,
2013-07-16 20:07:00,87.1,72.9,30.12,WSW,252,0.0,0.0,63,0.00,,,0.00,meteohub,2013-07-17 01:07:00,
2013-07-16 20:12:00,86.7,73.0,30.12,WSW,251,0.0,0.0,64,0.00,,,0.00,meteohub,2013-07-17 01:12:00,
2013-07-16 20:17:00,86.5,73.4,30.12,WSW,251,0.0,0.0,65,0.00,,,0.00,meteohub,2013-07-17 01:17:00,
2013-07-16 20:22:00,86.4,73.2,30.12,WSW,250,0.0,0.0,65,0.00,,,0.00,meteohub,2013-07-17 01:22:00,
2013-07-16 20:27:00,86.0,72.9,30.12,WSW,251,0.0,0.0,65,0.00,,,0.00,meteohub,2013-07-17 01:27:00,
2013-07-16 20:32:00,85.8,73.2,30.11,WSW,250,0.0,0.0,66,0.00,,,0.00,meteohub,2013-07-17 01:32:00,
2013-07-16 20:37:00,85.6,73.0,30.12,WSW,250,0.0,0.0,66,0.00,,,0.00,meteohub,2013-07-17 01:37:00,
2013-07-16 20:42:00,85.5,72.9,30.12,WSW,250,0.0,0.0,66,0.00,,,0.00,meteohub,2013-07-17 01:42:00,
2013-07-16 20:47:00,85.3,72.7,30.12,WSW,251,0.0,0.0,66,0.00,,,0.00,meteohub,2013-07-17 01:47:00,
2013-07-16 20:52:00,84.9,72.3,30.12,WSW,251,0.0,0.0,66,0.00,,,0.00,meteohub,2013-07-17 01:52:00,
2013-07-16 20:57:00,84.7,72.5,30.12,WSW,250,0.0,0.0,67,0.00,,,0.00,meteohub,2013-07-17 01:57:00,
2013-07-16 21:02:00,84.6,72.3,30.12,WSW,251,0.0,0.0,67,0.00,,,0.00,meteohub,2013-07-17 02:02:00,
2013-07-16 21:07:00,84.4,72.7,30.12,WSW,251,0.0,0.0,68,0.00,,,0.00,meteohub,2013-07-17 02:07:00,
2013-07-16 21:12:00,84.2,72.5,30.12,WSW,250,0.0,0.0,68,0.00,,,0.00,meteohub,2013-07-17 02:12:00,
2013-07-16 21:17:00,84.0,72.3,30.12,WSW,250,0.0,0.0,68,0.00,,,0.00,meteohub,2013-07-17 02:17:00,
2013-07-16 21:22:00,83.8,72.5,30.12,WSW,251,0.0,0.0,69,0.00,,,0.00,meteohub,2013-07-17 02:22:00,
2013-07-16 21:27:00,83.7,72.3,30.13,WSW,251,0.0,0.0,69,0.00,,,0.00,meteohub,2013-07-17 02:27:00,
2013-07-16 21:32:00,83.5,72.3,30.13,WSW,251,0.0,0.0,69,0.00,,,0.00,meteohub,2013-07-17 02:32:00,
2013-07-16 21:37:00,83.3,72.5,30.13,WSW,250,0.0,0.0,70,0.00,,,0.00,meteohub,2013-07-17 02:37:00,
2013-07-16 21:42:00,83.1,72.3,30.14,WSW,251,0.0,0.0,70,0.00,,,0.00,meteohub,2013-07-17 02:42:00,
2013-07-16 21:47:00,82.9,72.5,30.14,WSW,251,0.0,0.0,71,0.00,,,0.00,meteohub,2013-07-17 02:47:00,
2013-07-16 21:52:00,82.8,72.3,30.14,WSW,251,0.0,0.0,71,0.00,,,0.00,meteohub,2013-07-17 02:52:00,
2013-07-16 21:57:00,82.8,72.9,30.14,WSW,250,0.0,0.0,72,0.00,,,0.00,meteohub,2013-07-17 02:57:00,
2013-07-16 22:02:00,82.6,72.7,30.14,WSW,251,0.0,0.0,72,0.00,,,0.00,meteohub,2013-07-17 03:02:00,
2013-07-16 22:07:00,82.2,72.3,30.15,WSW,251,0.0,0.0,72,0.00,,,0.00,meteohub,2013-07-17 03:07:00,
2013-07-16 22:12:00,82.0,72.5,30.15,WSW,250,0.0,0.0,73,0.00,,,0.00,meteohub,2013-07-17 03:12:00,
2013-07-16 22:17:00,82.0,72.5,30.15,WSW,251,0.0,0.0,73,0.00,,,0.00,meteohub,2013-07-17 03:17:00,
2013-07-16 22:22:00,81.9,72.3,30.15,WSW,250,0.0,0.0,73,0.00,,,0.00,meteohub,2013-07-17 03:22:00,
2013-07-16 22:27:00,81.7,72.5,30.15,WSW,251,0.0,0.0,74,0.00,,,0.00,meteohub,2013-07-17 03:27:00,
2013-07-16 22:32:00,81.7,72.5,30.15,WSW,250,0.0,0.0,74,0.00,,,0.00,meteohub,2013-07-17 03:32:00,
2013-07-16 22:37:00,81.3,72.7,30.15,WSW,251,0.0,0.0,75,0.00,,,0.00,meteohub,2013-07-17 03:37:00,
2013-07-16 22:42:00,81.1,72.5,30.15,WSW,251,0.0,0.0,75,0.00,,,0.00,meteohub,2013-07-17 03:42:00,
2013-07-16 22:47:00,81.1,72.5,30.15,WSW,250,0.0,0.0,75,0.00,,,0.00,meteohub,2013-07-17 03:47:00,
2013-07-16 22:52:00,81.0,72.3,30.15,WSW,250,0.0,0.0,75,0.00,,,0.00,meteohub,2013-07-17 03:52:00,
2013-07-16 22:57:00,81.0,72.3,30.15,WSW,251,0.0,0.0,75,0.00,,,0.00,meteohub,2013-07-17 03:57:00,
2013-07-16 23:01:00,80.8,72.5,30.15,WSW,251,0.0,0.0,76,0.00,,,0.00,meteohub,2013-07-17 04:01:00,
2013-07-16 23:02:00,80.8,72.5,30.15,WSW,251,0.0,0.0,76,0.00,,,0.00,meteohub,2013-07-17 04:02:00,
2013-07-16 23:03:00,80.8,72.5,30.15,WSW,251,0.0,0.0,76,0.00,,,0.00,meteohub,2013-07-17 04:03:00,
2013-07-16 23:04:00,80.8,72.5,30.15,WSW,251,0.0,0.0,76,0.00,,,0.00,meteohub,2013-07-17 04:04:00,
2013-07-16 23:09:00,80.4,72.1,30.16,WSW,250,0.0,0.0,76,0.00,,,0.00,meteohub,2013-07-17 04:09:00,
2013-07-16 23:15:00,80.4,72.1,30.16,WSW,250,0.0,0.0,76,0.00,,,0.00,meteohub,2013-07-17 04:15:00,
2013-07-16 23:20:00,80.2,72.3,30.15,WSW,251,0.0,0.0,77,0.00,,,0.00,meteohub,2013-07-17 04:20:00,
2013-07-16 23:25:00,80.2,72.3,30.15,WSW,251,0.0,0.0,77,0.00,,,0.00,meteohub,2013-07-17 04:25:00,
2013-07-16 23:30:00,80.1,72.5,30.16,WSW,250,0.0,0.0,78,0.00,,,0.00,meteohub,2013-07-17 04:30:00,
2013-07-16 23:35:00,80.1,73.0,30.15,WSW,251,0.0,0.0,79,0.00,,,0.00,meteohub,2013-07-17 04:35:00,
2013-07-16 23:40:00,80.1,73.0,30.16,WSW,251,0.0,0.0,79,0.00,,,0.00,meteohub,2013-07-17 04:40:00,
2013-07-16 23:45:00,79.9,72.9,30.15,WSW,251,0.0,0.0,79,0.00,,,0.00,meteohub,2013-07-17 04:45:00,
2013-07-16 23:50:00,79.5,72.5,30.16,WSW,251,0.0,0.0,79,0.00,,,0.00,meteohub,2013-07-17 04:50:00,
2013-07-16 23:55:00,79.5,72.5,30.16,WSW,250,0.0,0.0,79,0.00,,,0.00,meteohub,2013-07-17 04:55:00,